GW2419 Weather Reports


Display with metric or nautical units.
time (UTC)temp
F
wind
direction
speed
MPH
gust
MPH
rain 1hr
in
rain 24hr
in
rain mn
in
humidity
%
barometer
mb
20240620062521 58 0 0.0 1.0 0.00 0.00 0.00 86 1026.9
20240620062020 58 0 0.0 1.0 0.00 0.00 0.00 86 1026.8
20240620061527 58 0 0.0 1.0 0.00 0.00 0.00 86 1026.9
20240620061023 58 0 0.0 1.0 0.00 0.00 0.00 87 1026.9
20240620060520 58 0 0.0 2.0 0.00 0.00 0.00 86 1026.9
20240620060025 58 0 0.0 2.0 0.00 0.00 0.00 86 1026.9
20240620055521 58 0 0.0 0.0 0.00 0.00 0.00 86 1027.0
20240620055022 58 0 0.0 0.0 0.00 0.00 0.00 85 1026.9
20240620054522 58 0 0.0 0.0 0.00 0.00 0.00 85 1026.9
20240620054023 58 0 0.0 0.0 0.00 0.00 0.00 85 1026.9
20240620053524 58 0 0.0 0.0 0.00 0.00 0.00 84 1026.8
20240620053028 58 0 0.0 0.0 0.00 0.00 0.00 84 1026.9
20240620052529 58 0 0.0 0.0 0.00 0.00 0.00 83 1026.9
20240620052023 58 0 0.0 0.0 0.00 0.00 0.00 83 1026.9
20240620051538 59 0 0.0 0.0 0.00 0.00 0.00 83 1026.8
20240620051025 59 0 0.0 0.0 0.00 0.00 0.00 83 1026.9
20240620050521 59 0 0.0 0.0 0.00 0.00 0.00 82 1026.9
20240620050025 59 0 0.0 0.0 0.00 0.00 0.00 82 1026.7
20240620045521 59 0 0.0 0.0 0.00 0.00 0.00 81 1026.9
20240620045020 59 0 0.0 0.0 0.00 0.00 0.00 80 1026.9
20240620044523 59 0 0.0 0.0 0.00 0.00 0.00 80 1026.9
20240620044025 60 0 0.0 0.0 0.00 0.00 0.00 80 1026.9
20240620043523 60 0 0.0 0.0 0.00 0.00 0.00 79 1026.9
20240620043027 60 0 0.0 0.0 0.00 0.00 0.00 78 1026.8
20240620042522 60 0 0.0 0.0 0.00 0.00 0.00 77 1026.9
20240620042021 60 0 0.0 0.0 0.00 0.00 0.00 76 1026.8
20240620041530 61 0 0.0 0.0 0.00 0.00 0.00 76 1026.8
20240620041022 61 0 0.0 0.0 0.00 0.00 0.00 76 1026.8
20240620040524 61 0 0.0 0.0 0.00 0.00 0.00 76 1026.9
20240620040028 61 0 0.0 0.0 0.00 0.00 0.00 75 1026.9
20240620035523 61 0 0.0 0.0 0.00 0.01 0.00 76 1026.8
20240620035022 62 0 0.0 0.0 0.00 0.01 0.00 76 1026.9
20240620034528 62 0 0.0 0.0 0.00 0.01 0.00 75 1027.0
20240620034021 62 0 0.0 1.0 0.00 0.01 0.00 74 1026.9
20240620033525 62 0 0.0 1.0 0.00 0.01 0.00 74 1026.9
20240620033028 62 0 0.0 1.0 0.00 0.01 0.00 74 1026.9
20240620032521 62 0 0.0 1.0 0.00 0.01 0.00 73 1026.8
20240620032022 63 0 0.0 2.0 0.00 0.01 0.00 73 1026.8
20240620031533 63 0 0.0 2.0 0.00 0.01 0.00 72 1026.8
20240620031021 63 0 0.0 2.0 0.00 0.01 0.00 71 1026.8
20240620030521 63 0 0.0 1.0 0.00 0.01 0.00 70 1026.8
20240620030024 64 0 0.0 3.0 0.00 0.01 0.00 70 1026.9
20240620025521 64 0 0.0 3.0 0.00 0.01 0.00 70 1026.8
20240620025021 64 30 1.0 3.0 0.00 0.01 0.00 69 1026.8
20240620024529 64 0 0.0 3.0 0.00 0.01 0.00 70 1026.6
20240620024020 64 207 0.0 3.0 0.00 0.01 0.00 70 1026.5
20240620023521 64 0 0.0 2.0 0.00 0.01 0.00 70 1026.5
20240620023026 65 0 0.0 2.0 0.00 0.01 0.00 69 1026.4
20240620022521 65 52 0.0 2.0 0.00 0.01 0.00 68 1026.4
20240620022023 65 0 0.0 3.0 0.00 0.01 0.00 68 1026.4
20240620021534 65 63 1.0 3.0 0.00 0.01 0.00 67 1026.3
20240620021023 65 329 0.0 3.0 0.00 0.01 0.00 67 1026.3
20240620020528 65 360 0.0 2.0 0.00 0.01 0.00 67 1026.3
20240620020028 66 0 0.0 4.0 0.00 0.01 0.00 68 1026.2
20240620015521 66 0 0.0 4.0 0.00 0.25 0.00 66 1026.3
20240620015021 66 0 0.0 2.0 0.00 0.25 0.00 66 1026.1
20240620014524 67 0 0.0 2.0 0.00 0.25 0.00 65 1026.2
20240620014021 67 0 0.0 2.0 0.00 0.25 0.00 64 1026.2
20240620013521 67 0 0.0 3.0 0.00 0.25 0.00 63 1026.1
20240620013027 67 0 0.0 3.0 0.00 0.25 0.00 62 1026.1
20240620012523 68 15 1.0 3.0 0.00 0.25 0.00 62 1026.1
20240620012023 68 0 0.0 3.0 0.00 0.25 0.00 63 1026.1
20240620011529 68 0 0.0 3.0 0.00 0.25 0.00 63 1026.1
20240620011021 68 35 1.0 5.0 0.00 0.25 0.00 61 1026.0
20240620010523 68 345 2.0 5.0 0.00 0.25 0.00 61 1025.8
20240620010035 68 46 2.0 6.0 0.00 0.25 0.00 60 1025.8
20240620005521 68 360 1.0 6.0 0.00 0.25 0.00 60 1025.7
20240620005021 69 36 2.0 6.0 0.00 0.25 0.00 60 1025.7
20240620004530 69 43 2.0 6.0 0.00 0.25 0.00 60 1025.7
20240620004021 69 38 3.0 5.0 0.00 0.25 0.00 60 1025.6
20240620003523 69 86 3.0 6.0 0.00 0.25 0.00 59 1025.6
20240620003024 69 61 2.0 6.0 0.00 0.25 0.00 59 1025.6
20240620002521 69 63 2.0 7.0 0.00 0.25 0.00 60 1025.5
20240620002021 69 51 3.0 7.0 0.00 0.25 0.00 60 1025.4
20240620001528 70 61 2.0 5.0 0.00 0.25 0.00 60 1025.5
20240620001021 70 64 2.0 5.0 0.00 0.25 0.00 59 1025.5
20240620000521 70 63 2.0 5.0 0.00 0.25 0.00 59 1025.5
20240620000028 70 55 1.0 4.0 0.00 0.25 0.00 59 1025.5
20240619235521 70 43 1.0 4.0 0.00 0.25 0.00 59 1025.5
20240619235023 70 21 2.0 4.0 0.00 0.25 0.00 57 1025.6
20240619234526 70 327 2.0 4.0 0.00 0.25 0.00 58 1025.4
20240619234021 70 22 1.0 4.0 0.00 0.25 0.00 58 1025.4
20240619233521 70 38 2.0 4.0 0.00 0.25 0.00 58 1025.5
20240619233035 70 0 1.0 5.0 0.00 0.25 0.00 58 1025.3
20240619232525 70 35 2.0 5.0 0.00 0.25 0.00 57 1025.3
20240619232022 70 12 2.0 5.0 0.00 0.25 0.00 56 1025.3
20240619231527 71 15 2.0 5.0 0.00 0.25 0.00 57 1025.2
20240619231021 71 360 1.0 5.0 0.00 0.25 0.00 57 1025.0
20240619230522 71 24 1.0 4.0 0.00 0.25 0.00 57 1025.0
20240619230023 72 0 1.0 4.0 0.00 0.25 0.00 57 1025.0
20240619225524 72 196 1.0 8.0 0.00 0.25 0.00 57 1024.9
20240619225021 72 21 2.0 8.0 0.00 0.25 0.00 54 1025.0
20240619224542 72 26 2.0 8.0 0.00 0.25 0.00 55 1025.0
20240619224020 72 202 2.0 6.0 0.00 0.25 0.00 56 1025.0
20240619223522 72 158 2.0 7.0 0.00 0.25 0.00 56 1025.0
20240619223029 72 28 2.0 7.0 0.00 0.25 0.00 55 1025.0
20240619222524 72 360 3.0 6.0 0.00 0.25 0.00 57 1025.1
20240619222022 72 360 2.0 6.0 0.00 0.25 0.00 56 1025.1
20240619221524 71 360 2.0 8.0 0.00 0.25 0.00 57 1025.1
20240619221020 72 17 1.0 8.0 0.00 0.25 0.00 56 1025.1
20240619220521 72 13 2.0 7.0 0.00 0.25 0.00 56 1025.2
20240619220023 72 148 2.0 7.0 0.00 0.25 0.00 56 1025.2
20240619215522 72 360 1.0 10.0 0.00 0.25 0.00 55 1025.2
20240619215021 72 22 3.0 10.0 0.00 0.25 0.00 56 1025.1
20240619214521 72 13 3.0 10.0 0.00 0.25 0.00 56 1025.2
20240619214022 72 14 1.0 5.0 0.00 0.25 0.00 57 1025.3
20240619213520 72 360 1.0 6.0 0.00 0.25 0.00 55 1025.2
20240619213039 72 0 2.0 6.0 0.00 0.25 0.00 58 1025.2
20240619212524 71 12 1.0 5.0 0.00 0.25 0.00 56 1025.1
20240619212021 71 360 2.0 5.0 0.00 0.25 0.00 57 1025.2
20240619211523 71 9 1.0 3.0 0.00 0.25 0.00 57 1025.1
20240619211020 71 0 1.0 6.0 0.00 0.25 0.00 59 1025.2
20240619210521 71 360 2.0 6.0 0.00 0.25 0.00 57 1025.1
20240619210022 71 360 2.0 5.0 0.00 0.25 0.00 56 1025.1
20240619205520 71 360 1.0 10.0 0.00 0.25 0.00 58 1025.1
20240619205020 70 360 3.0 10.0 0.00 0.25 0.00 57 1025.2
20240619204520 70 13 2.0 5.0 0.00 0.25 0.00 60 1025.0
20240619204021 70 121 1.0 6.0 0.00 0.25 0.00 58 1025.1
20240619203521 70 360 1.0 7.0 0.00 0.25 0.00 58 1025.0
20240619203022 70 128 2.0 7.0 0.00 0.25 0.00 56 1025.1
20240619202521 70 360 1.0 5.0 0.00 0.25 0.00 59 1025.1
20240619202019 70 0 2.0 5.0 0.00 0.25 0.00 58 1025.0
20240619201543 69 360 2.0 8.0 0.00 0.25 0.00 58 1025.1
20240619201020 69 9 2.0 8.0 0.00 0.25 0.00 62 1025.1
20240619200524 69 28 1.0 5.0 0.00 0.25 0.00 61 1025.1
20240619200023 69 13 1.0 9.0 0.00 0.25 0.00 59 1025.0
20240619195520 69 144 2.0 9.0 0.00 0.25 0.00 59 1025.1
20240619195020 69 136 2.0 8.0 0.00 0.25 0.00 61 1025.0
20240619194537 69 105 1.0 9.0 0.00 0.25 0.00 58 1025.0
20240619194020 69 9 3.0 9.0 0.00 0.25 0.00 62 1025.1
20240619193520 69 121 2.0 7.0 0.00 0.25 0.00 60 1025.1
20240619193026 68 19 1.0 8.0 0.00 0.25 0.00 61 1025.1
20240619192520 68 115 2.0 8.0 0.00 0.25 0.00 61 1025.3
20240619192018 68 360 2.0 6.0 0.00 0.25 0.00 60 1025.1
20240619191524 69 138 2.0 6.0 0.00 0.25 0.00 62 1025.2
20240619191022 69 360 1.0 8.0 0.00 0.25 0.00 62 1025.1
20240619190521 69 5 2.0 9.0 0.00 0.25 0.00 59 1025.0
20240619190024 69 23 3.0 9.0 0.00 0.25 0.00 58 1024.9
20240619185524 69 360 1.0 8.0 0.00 0.25 0.00 60 1025.0
20240619185021 69 5 3.0 8.0 0.00 0.25 0.00 60 1025.0
20240619184532 69 123 1.0 9.0 0.00 0.25 0.00 60 1024.8
20240619184021 69 31 3.0 11.0 0.00 0.25 0.00 59 1024.9
20240619183520 69 5 1.0 11.0 0.00 0.25 0.00 60 1024.8
20240619183029 69 25 4.0 11.0 0.00 0.25 0.00 57 1025.0
20240619182521 69 360 2.0 7.0 0.00 0.25 0.00 60 1025.0
20240619182024 69 360 3.0 8.0 0.00 0.25 0.00 59 1025.0
20240619181526 69 360 2.0 9.0 0.00 0.25 0.00 61 1024.8
20240619181023 69 360 3.0 9.0 0.00 0.25 0.00 60 1024.8
20240619180640 69 360 1.0 7.0 0.00 0.25 0.00 64 1024.8
20240619180055 68 360 3.0 7.0 0.00 0.25 0.00 61 1024.7
20240619175523 68 20 1.0 6.0 0.00 0.25 0.00 62 1024.6
20240619175021 68 17 2.0 6.0 0.00 0.25 0.00 64 1024.6
20240619174527 68 360 2.0 7.0 0.00 0.25 0.00 66 1024.5
20240619174022 68 33 3.0 9.0 0.00 0.25 0.00 63 1024.4
20240619173528 68 116 2.0 9.0 0.00 0.25 0.00 64 1024.4
20240619173028 68 42 2.0 8.0 0.00 0.25 0.00 64 1024.4
20240619172521 68 360 1.0 8.0 0.00 0.25 0.00 63 1024.3
20240619172023 67 38 2.0 8.0 0.00 0.25 0.00 66 1024.3
20240619171529 67 16 2.0 8.0 0.00 0.25 0.00 64 1024.2
20240619171021 67 5 3.0 9.0 0.00 0.25 0.00 62 1024.2
20240619170520 67 360 3.0 9.0 0.00 0.25 0.00 63 1024.3
20240619170028 67 33 2.0 9.0 0.00 0.25 0.00 65 1024.4
20240619165524 67 11 1.0 4.0 0.00 0.25 0.00 63 1024.3
20240619165023 67 5 1.0 7.0 0.00 0.25 0.00 65 1024.3
20240619164524 67 89 2.0 8.0 0.00 0.25 0.00 65 1024.1
20240619164028 67 28 2.0 8.0 0.00 0.25 0.00 63 1024.1
20240619163520 67 24 2.0 9.0 0.00 0.25 0.00 64 1024.1
20240619163036 67 13 3.0 9.0 0.00 0.25 0.00 64 1024.1
20240619162523 67 34 1.0 8.0 0.00 0.25 0.00 68 1024.0
20240619162021 67 360 2.0 4.0 0.00 0.25 0.00 64 1023.9
20240619161534 67 27 1.0 5.0 0.00 0.25 0.00 64 1023.8
20240619161021 67 360 1.0 5.0 0.00 0.25 0.00 66 1023.9
20240619160521 67 59 2.0 5.0 0.00 0.25 0.00 64 1023.8
20240619160025 67 35 2.0 6.0 0.00 0.25 0.00 66 1023.8
20240619155525 67 360 1.0 6.0 0.00 0.25 0.00 67 1023.7
20240619155021 66 22 2.0 6.0 0.00 0.25 0.00 66 1023.7
20240619154523 66 360 2.0 8.0 0.00 0.25 0.00 65 1023.6
20240619154022 66 87 3.0 8.0 0.00 0.25 0.00 66 1023.6
20240619153521 66 39 1.0 9.0 0.00 0.25 0.00 67 1023.6
20240619153031 66 96 2.0 9.0 0.00 0.25 0.00 66 1023.5
20240619152521 66 23 1.0 9.0 0.00 0.25 0.00 66 1023.4
20240619152021 67 360 2.0 12.0 0.00 0.25 0.00 65 1023.3
20240619151526 67 84 2.0 12.0 0.00 0.25 0.00 65 1023.2
20240619151020 67 360 2.0 12.0 0.00 0.25 0.00 64 1022.9
20240619150524 67 360 2.0 9.0 0.00 0.25 0.00 65 1022.9
20240619150032 67 9 2.0 9.0 0.00 0.25 0.00 64 1022.8
20240619145520 67 19 1.0 5.0 0.00 0.25 0.00 67 1022.7
20240619145024 66 360 1.0 4.0 0.00 0.25 0.00 68 1022.7
20240619144528 66 5 1.0 8.0 0.00 0.25 0.00 68 1022.7
20240619144022 65 24 1.0 8.0 0.00 0.25 0.00 68 1022.5
20240619143523 65 12 2.0 7.0 0.00 0.25 0.00 69 1022.4
20240619143037 65 29 2.0 7.0 0.00 0.25 0.00 70 1022.4
20240619142522 65 32 1.0 6.0 0.00 0.25 0.00 70 1022.1
20240619142024 65 5 1.0 5.0 0.00 0.25 0.00 69 1022.0
20240619141529 65 23 2.0 8.0 0.00 0.25 0.00 69 1022.0
20240619141020 64 15 2.0 8.0 0.00 0.25 0.00 71 1021.9
20240619140520 64 360 3.0 8.0 0.00 0.25 0.00 70 1022.0
20240619140026 63 360 1.0 8.0 0.00 0.25 0.00 71 1021.9
20240619135524 63 16 2.0 8.0 0.00 0.25 0.00 72 1021.8
20240619135024 62 15 0.0 8.0 0.00 0.25 0.00 74 1021.7
20240619134524 62 13 3.0 7.0 0.00 0.25 0.00 72 1021.7
20240619134023 62 16 1.0 9.0 0.00 0.25 0.00 73 1021.7
20240619133522 62 24 1.0 9.0 0.00 0.25 0.00 74 1021.7
20240619133033 62 14 3.0 10.0 0.00 0.25 0.00 72 1021.6
20240619132521 62 13 4.0 10.0 0.00 0.25 0.00 73 1021.6
20240619132022 62 51 2.0 11.0 0.00 0.25 0.00 73 1021.5
20240619131525 62 360 3.0 11.0 0.00 0.25 0.00 73 1021.5
20240619131022 62 19 3.0 8.0 0.00 0.25 0.00 73 1021.3
20240619130524 62 0 2.0 7.0 0.00 0.25 0.00 75 1021.3
20240619130030 61 19 2.0 5.0 0.00 0.25 0.00 78 1021.1
20240619125525 61 360 2.0 5.0 0.00 0.25 0.00 77 1021.1
20240619125021 61 19 1.0 4.0 0.00 0.25 0.00 78 1021.0
20240619124530 61 11 2.0 5.0 0.00 0.25 0.00 78 1021.1
20240619124021 61 15 0.0 5.0 0.00 0.25 0.00 78 1020.7
20240619123525 61 0 2.0 4.0 0.00 0.25 0.00 78 1020.5
20240619123026 61 9 1.0 5.0 0.00 0.25 0.00 78 1020.5
20240619122522 61 0 2.0 6.0 0.00 0.25 0.00 78 1020.4
20240619122023 61 13 2.0 6.0 0.00 0.25 0.00 78 1020.2
20240619121533 61 12 1.0 9.0 0.00 0.25 0.00 79 1020.3
20240619121025 61 22 1.0 9.0 0.00 0.25 0.00 78 1020.2
20240619120522 61 17 3.0 9.0 0.00 0.25 0.00 78 1019.9
20240619120032 61 17 2.0 8.0 0.00 0.25 0.00 78 1019.7
20240619115521 61 18 1.0 8.0 0.00 0.25 0.00 79 1019.5
20240619115023 61 14 1.0 5.0 0.00 0.25 0.00 79 1019.4
20240619114530 61 360 1.0 5.0 0.00 0.25 0.00 80 1019.4
20240619114022 61 29 0.0 5.0 0.00 0.25 0.00 82 1019.3
20240619113523 61 0 1.0 5.0 0.00 0.25 0.00 82 1019.2
20240619113027 61 0 0.0 3.0 0.00 0.25 0.00 82 1019.0
20240619112522 61 360 0.0 2.0 0.00 0.25 0.00 82 1019.1
20240619112022 61 0 0.0 3.0 0.00 0.25 0.00 82 1018.9
20240619111528 61 0 0.0 3.0 0.00 0.25 0.00 82 1018.8
20240619111023 61 34 0.0 2.0 0.00 0.25 0.00 82 1018.8
20240619110521 61 0 0.0 2.0 0.00 0.25 0.00 82 1018.7
20240619110038 61 38 0.0 3.0 0.00 0.25 0.00 82 1018.6
20240619105522 61 0 0.0 3.0 0.00 0.25 0.00 82 1018.7
20240619105024 61 360 0.0 3.0 0.00 0.25 0.00 82 1018.7
20240619104524 61 0 0.0 2.0 0.00 0.25 0.00 82 1018.6
20240619104021 61 0 0.0 4.0 0.00 0.25 0.00 82 1018.6
20240619103525 61 51 0.0 4.0 0.00 0.25 0.00 82 1018.5
20240619103026 61 46 1.0 4.0 0.00 0.25 0.00 82 1018.3
20240619102521 61 40 1.0 2.0 0.00 0.25 0.00 82 1018.0
20240619102021 62 360 0.0 2.0 0.00 0.25 0.00 82 1018.0
20240619101524 62 0 0.0 4.0 0.00 0.25 0.00 82 1017.8
20240619101024 62 0 1.0 4.0 0.00 0.25 0.00 82 1017.6
20240619100524 62 46 0.0 3.0 0.00 0.25 0.00 83 1017.4
20240619100025 62 360 1.0 6.0 0.00 0.25 0.00 82 1017.3
20240619095522 62 0 1.0 6.0 0.00 0.25 0.00 83 1017.2
20240619095021 62 360 2.0 5.0 0.00 0.25 0.00 83 1017.1
20240619094524 62 360 2.0 5.0 0.00 0.25 0.00 84 1016.9
20240619094020 62 360 1.0 5.0 0.00 0.25 0.00 84 1016.8
20240619093521 63 40 1.0 4.0 0.00 0.25 0.00 85 1016.6
20240619093024 63 0 1.0 4.0 0.00 0.25 0.00 85 1016.4
20240619092527 63 360 1.0 5.0 0.00 0.25 0.00 85 1016.2
20240619092024 63 50 1.0 6.0 0.00 0.25 0.00 85 1016.1
20240619091530 63 360 2.0 6.0 0.00 0.25 0.00 85 1016.1
20240619091023 63 360 1.0 8.0 0.00 0.25 0.00 85 1016.0
20240619090523 63 360 2.0 8.0 0.00 0.25 0.00 85 1015.9
20240619090027 63 360 2.0 8.0 0.00 0.25 0.00 85 1015.8
20240619085523 63 360 1.0 5.0 0.00 0.25 0.00 85 1015.7
20240619085027 63 41 1.0 5.0 0.00 0.25 0.00 85 1015.7
20240619084537 63 46 1.0 5.0 0.00 0.25 0.00 85 1015.8
20240619084021 63 41 1.0 5.0 0.00 0.25 0.00 86 1015.7
20240619083521 63 360 1.0 5.0 0.00 0.25 0.00 86 1015.6
20240619083026 63 49 1.0 4.0 0.00 0.25 0.00 86 1015.5
20240619082521 63 360 2.0 5.0 0.00 0.25 0.00 86 1015.4
20240619082024 63 49 1.0 6.0 0.00 0.25 0.00 86 1015.5
20240619081529 63 44 2.0 6.0 0.00 0.25 0.00 85 1015.4
20240619081024 63 360 1.0 8.0 0.00 0.25 0.00 85 1015.2
20240619080523 63 53 1.0 8.0 0.00 0.25 0.00 85 1015.2
20240619080023 63 41 2.0 8.0 0.00 0.25 0.00 85 1015.1
20240619075523 63 49 1.0 4.0 0.00 0.25 0.00 85 1015.0
20240619075024 63 51 1.0 4.0 0.00 0.25 0.00 85 1014.8
20240619074527 63 41 1.0 5.0 0.00 0.25 0.00 85 1014.9
20240619074024 63 51 1.0 6.0 0.00 0.25 0.00 85 1014.7
20240619073524 63 55 1.0 6.0 0.00 0.25 0.00 85 1014.7
20240619073037 63 51 2.0 6.0 0.00 0.25 0.00 85 1014.6
20240619072523 63 46 1.0 5.0 0.00 0.25 0.00 85 1014.6
20240619072024 64 46 2.0 5.0 0.00 0.25 0.00 85 1014.4
20240619071527 64 52 2.0 5.0 0.00 0.25 0.00 86 1014.3
20240619071023 64 360 1.0 5.0 0.00 0.25 0.00 86 1014.1
20240619070523 64 360 1.0 5.0 0.00 0.25 0.00 86 1014.0
20240619070023 64 360 3.0 5.0 0.00 0.25 0.00 85 1013.9
20240619065524 64 360 2.0 5.0 0.00 0.25 0.00 86 1013.9
20240619065025 64 360 1.0 6.0 0.00 0.25 0.00 87 1013.5
20240619064525 64 360 1.0 6.0 0.00 0.25 0.00 87 1013.6
20240619064025 64 360 1.0 6.0 0.00 0.25 0.00 87 1013.5
20240619063525 64 49 1.0 5.0 0.00 0.25 0.00 87 1013.5
20240619063022 65 44 1.0 4.0 0.00 0.25 0.00 87 1013.1